Weather History for Duluth Sky Harbor, MN

Change the Weather History Date:

Sunday, January 13, 2013

  Actual Average Record
Temperature  
Mean Temperature 9 °F -  
Max Temperature 12 °F 21 °F 42 °F (1980)
Min Temperature 6 °F 1 °F -22 °F (1957)
Degree Days  
Heating Degree Days 56    
Moisture  
Dew Point 2 °F    
Average Humidity 70    
Maximum Humidity 79    
Minimum Humidity 62    
Precipitation  
Precipitation 0.00 in - - ()
Sea Level Pressure  
Sea Level Pressure 30.08 in    
Wind  
Wind Speed 11 mph (West)    
Max Wind Speed 14 mph    
Max Gust Speed -    
Visibility 9 miles    
Events Snow    
Averages and records for this station are not official NWS values.
T = Trace of Precipitation, MM = Missing Value Source: NWS Daily Summary

Daily Weather History Graph

Daily Weather History Graph

Search for Another Location

Airport:

Trip Planner

Search our weather history database for the weather conditions in past years. The results will help you decide how hot, cold, wet, or windy it might be!

Date:

Astronomy

Jan. 13, 2013 Rise Set
Actual Time 7:49 AM CST 4:44 PM CST
Civil Twilight 7:15 AM CST 5:19 PM CST
Nautical Twilight 6:37 AM CST 5:56 PM CST
Astronomical Twilight 6:01 AM CST 6:33 PM CST
Moon 8:37 AM CST (1/13) 7:36 PM CST (1/13)
Length of Visible Light 10h 03m
Length of Day
8h 55m
Waxing Crescent, 5% of the Moon is Illuminated
Jan 13
Waxing Crescent
Jan 18
First Quarter
Jan 26
Full
Feb 3
Last Quarter
Feb 10
New

Hourly Weather History & Observations

Time (CST) Temp. Windchill Dew Point Humidity Pressure Visibility Wind Dir Wind Speed Gust Speed Precip Events Conditions
12:14 AM 10.4 °F -4.1 °F 1.4 °F 67% 30.03 in 10.0 mi WNW 11.5 mph - N/A   Clear
12:34 AM 10.4 °F -5.4 °F 1.4 °F 67% 30.02 in 10.0 mi WNW 13.8 mph - N/A   Scattered Clouds
12:53 AM 10.4 °F -4.8 °F 1.4 °F 67% 30.03 in 10.0 mi WNW 12.7 mph - N/A   Mostly Cloudy
1:14 AM 10.4 °F -4.8 °F 1.4 °F 67% 30.04 in 10.0 mi NW 12.7 mph - N/A   Overcast
1:34 AM 10.4 °F -3.3 °F 1.4 °F 67% 30.04 in 10.0 mi NW 10.4 mph - N/A   Overcast
1:53 AM 8.6 °F -4.7 °F -0.4 °F 67% 30.04 in 10.0 mi NW 9.2 mph - N/A   Overcast
2:14 AM 8.6 °F -6.3 °F -0.4 °F 67% 30.05 in 10.0 mi WNW 11.5 mph - N/A   Overcast
2:33 AM 8.6 °F -5.5 °F 1.4 °F 73% 30.05 in 10.0 mi WNW 10.4 mph - N/A   Mostly Cloudy
2:54 AM 8.6 °F -7.7 °F 1.4 °F 73% 30.05 in 10.0 mi WNW 13.8 mph - N/A   Scattered Clouds
3:13 AM 8.6 °F -7.0 °F 1.4 °F 73% 30.05 in 10.0 mi WNW 12.7 mph - N/A   Clear
3:33 AM 8.6 °F -7.0 °F 1.4 °F 73% 30.04 in 10.0 mi WNW 12.7 mph - N/A   Clear
3:54 AM 8.6 °F -7.0 °F -0.4 °F 67% 30.04 in 10.0 mi WNW 12.7 mph - N/A   Clear
4:13 AM 8.6 °F -7.7 °F -0.4 °F 67% 30.03 in 10.0 mi NW 13.8 mph - N/A   Clear
4:33 AM 6.8 °F -9.3 °F -0.4 °F 72% 30.02 in 10.0 mi NW 12.7 mph - N/A   Clear
4:54 AM 6.8 °F -8.6 °F -0.4 °F 72% 30.02 in 10.0 mi NW 11.5 mph - N/A   Scattered Clouds
5:13 AM 6.8 °F -8.6 °F -0.4 °F 72% 30.03 in 10.0 mi NW 11.5 mph - N/A   Scattered Clouds
5:33 AM 6.8 °F -7.8 °F -0.4 °F 72% 30.02 in 10.0 mi NW 10.4 mph - N/A   Scattered Clouds
5:54 AM 6.8 °F -5.9 °F -0.4 °F 72% 30.04 in 10.0 mi NW 8.1 mph - N/A   Scattered Clouds
6:13 AM 6.8 °F -6.9 °F -0.4 °F 72% 30.05 in 10.0 mi NW 9.2 mph - N/A   Scattered Clouds
6:33 AM 6.8 °F -7.8 °F -0.4 °F 72% 30.06 in 10.0 mi WNW 10.4 mph - N/A   Scattered Clouds
6:54 AM 6.8 °F -6.9 °F -2.2 °F 67% 30.08 in 10.0 mi West 9.2 mph - N/A   Scattered Clouds
7:13 AM 6.8 °F -5.9 °F -0.4 °F 72% 30.08 in 10.0 mi WNW 8.1 mph - N/A   Clear
7:33 AM 6.8 °F -6.9 °F -2.2 °F 67% 30.09 in 10.0 mi WNW 9.2 mph - N/A   Scattered Clouds
7:54 AM 6.8 °F -8.6 °F -0.4 °F 72% 30.08 in 10.0 mi WNW 11.5 mph - N/A   Mostly Cloudy
8:13 AM 6.8 °F -8.6 °F -0.4 °F 72% 30.08 in 10.0 mi NW 11.5 mph - N/A   Scattered Clouds
8:33 AM 6.8 °F -8.6 °F -0.4 °F 72% 30.10 in 10.0 mi WNW 11.5 mph - N/A   Clear
8:53 AM 6.8 °F -5.9 °F -2.2 °F 67% 30.12 in 10.0 mi West 8.1 mph - N/A   Clear
9:13 AM 6.8 °F -5.9 °F -0.4 °F 72% 30.13 in 10.0 mi West 8.1 mph - N/A   Scattered Clouds
9:34 AM 6.8 °F -6.9 °F -0.4 °F 72% 30.12 in 10.0 mi West 9.2 mph - N/A   Overcast
9:53 AM 8.6 °F -3.7 °F -0.4 °F 67% 30.12 in 10.0 mi WNW 8.1 mph - N/A   Overcast
10:13 AM 8.6 °F -4.7 °F -0.4 °F 67% 30.11 in 10.0 mi WNW 9.2 mph - N/A   Overcast
10:34 AM 10.4 °F -2.4 °F -0.4 °F 62% 30.10 in 10.0 mi West 9.2 mph - N/A   Overcast
10:53 AM 10.4 °F -0.4 °F -0.4 °F 62% 30.09 in 10.0 mi WNW 6.9 mph - N/A   Overcast
11:14 AM 10.4 °F -2.4 °F -0.4 °F 62% 30.08 in 10.0 mi WNW 9.2 mph - N/A   Overcast
11:33 AM 8.6 °F -4.7 °F 3.2 °F 79% 30.07 in 1.5 mi WNW 9.2 mph - N/A Snow Light Snow
11:53 AM 8.6 °F -3.7 °F 3.2 °F 79% 30.06 in 4.0 mi WNW 8.1 mph - N/A Snow Light Snow
12:14 PM 8.6 °F -3.7 °F 3.2 °F 79% 30.05 in 3.0 mi WNW 8.1 mph - N/A Snow Light Snow
12:33 PM 10.4 °F 0.8 °F 3.2 °F 73% 30.04 in 7.0 mi WNW 5.8 mph - N/A   Overcast
12:53 PM 10.4 °F -2.4 °F 1.4 °F 67% 30.04 in 10.0 mi WNW 9.2 mph - N/A Snow Light Snow
1:14 PM 10.4 °F -2.4 °F 3.2 °F 73% 30.03 in 4.0 mi West 9.2 mph - N/A Snow Light Snow
1:33 PM 10.4 °F -1.5 °F 3.2 °F 73% 30.03 in 10.0 mi WNW 8.1 mph - N/A   Overcast
1:53 PM 10.4 °F -2.4 °F 3.2 °F 73% 30.04 in 7.0 mi WSW 9.2 mph - N/A Snow Light Snow
2:14 PM 10.4 °F -2.4 °F 3.2 °F 73% 30.04 in 10.0 mi West 9.2 mph - N/A Snow Light Snow
2:33 PM 10.4 °F -4.1 °F 3.2 °F 73% 30.05 in 7.0 mi WSW 11.5 mph - N/A Snow Light Snow
2:53 PM 12.2 °F -1.0 °F 3.2 °F 67% 30.06 in 7.0 mi West 10.4 mph - N/A Snow Light Snow
3:14 PM 12.2 °F -0.2 °F 3.2 °F 67% 30.06 in 2.5 mi WSW 9.2 mph - N/A Snow Light Snow
3:33 PM 12.2 °F -1.0 °F 5.0 °F 73% 30.06 in 4.0 mi WNW 10.4 mph - N/A Snow Light Snow
3:53 PM 12.2 °F -0.2 °F 6.8 °F 79% 30.07 in 4.0 mi West 9.2 mph - N/A Snow Light Snow
4:14 PM 12.2 °F -0.2 °F 6.8 °F 79% 30.07 in 3.0 mi West 9.2 mph - N/A Snow Light Snow
4:33 PM 12.2 °F -1.8 °F 6.8 °F 79% 30.07 in 10.0 mi West 11.5 mph - N/A   Overcast
4:53 PM 12.2 °F -2.5 °F 3.2 °F 67% 30.07 in 10.0 mi WNW 12.7 mph - N/A   Overcast
5:13 PM 12.2 °F -2.5 °F 3.2 °F 67% 30.08 in 10.0 mi West 12.7 mph - N/A   Overcast
5:33 PM 12.2 °F -1.0 °F 3.2 °F 67% 30.08 in 10.0 mi West 10.4 mph - N/A   Overcast
5:54 PM 12.2 °F -0.2 °F 3.2 °F 67% 30.09 in 10.0 mi West 9.2 mph - N/A   Overcast
6:13 PM 12.2 °F -2.5 °F 3.2 °F 67% 30.09 in 10.0 mi West 12.7 mph - N/A   Overcast
6:34 PM 12.2 °F -0.2 °F 3.2 °F 67% 30.10 in 10.0 mi West 9.2 mph - N/A   Overcast
6:54 PM 12.2 °F -1.8 °F 3.2 °F 67% 30.10 in 10.0 mi West 11.5 mph - N/A   Scattered Clouds
7:13 PM 10.4 °F -4.8 °F 1.4 °F 67% 30.10 in 10.0 mi West 12.7 mph - N/A   Clear
7:34 PM 10.4 °F -4.1 °F 1.4 °F 67% 30.11 in 10.0 mi West 11.5 mph - N/A   Clear
7:53 PM 10.4 °F -4.1 °F 3.2 °F 73% 30.11 in 10.0 mi West 11.5 mph - N/A   Scattered Clouds
8:13 PM 10.4 °F -4.8 °F 1.4 °F 67% 30.12 in 10.0 mi West 12.7 mph - N/A   Scattered Clouds
8:34 PM 10.4 °F -3.3 °F 1.4 °F 67% 30.12 in 10.0 mi West 10.4 mph - N/A   Clear
8:53 PM 10.4 °F -3.3 °F 1.4 °F 67% 30.13 in 10.0 mi West 10.4 mph - N/A   Clear
9:14 PM 10.4 °F -3.3 °F 1.4 °F 67% 30.13 in 10.0 mi West 10.4 mph - N/A   Clear
9:33 PM 10.4 °F -2.4 °F 1.4 °F 67% 30.14 in 10.0 mi West 9.2 mph - N/A   Scattered Clouds
9:54 PM 10.4 °F -0.4 °F 1.4 °F 67% 30.14 in 10.0 mi WSW 6.9 mph - N/A   Mostly Cloudy
10:33 PM 10.4 °F -1.5 °F 3.2 °F 73% 30.15 in 10.0 mi SW 8.1 mph - N/A   Overcast
10:54 PM 8.6 °F -3.7 °F 3.2 °F 79% 30.16 in 10.0 mi SW 8.1 mph - N/A   Mostly Cloudy
11:13 PM 8.6 °F -3.7 °F 1.4 °F 73% 30.16 in 10.0 mi SSW 8.1 mph - N/A   Scattered Clouds
11:33 PM 6.8 °F -4.8 °F 1.4 °F 79% 30.17 in 10.0 mi SSW 6.9 mph - N/A   Clear
11:54 PM 6.8 °F -6.9 °F 1.4 °F 79% 30.17 in 10.0 mi SSW 9.2 mph - N/A   Mostly Cloudy